Location: Bats
(43.6587°N, 0.4584°W)
Time: 15:56:27
(UTC+00:00)

Cosmos 1703 - Pass Details

Date: 12 January 2026
Orbit: 413 x 424 km, 82.5° (Epoch: 18 February)

Event Time Altitude Azimuth Distance (km) Brightness Sun altitude
Rises 17:55:06 0° 173° (S) 2,399 6.7 -12.1°
Reaches altitude 10° 17:57:11 10° 166° (SSE) 1,537 5.7 -12.4°
Maximum altitude 18:00:23 43° 94° (E) 624 3.2 -13.0°
Enters shadow 18:02:58 14° 25° (NNE) 1,300 4.8 -13.4°
